NOAA 17 DEB, 48713

Orbit data source: Space-Track

NOAA 17 DEB, 48713 is space debris in SSO originally from a launch on Mon, 24 Jun 2002 UTC launched from the Air Force Western Test Range (AFWTR). Debris objects in space refer to the collection of defunct objects orbiting the Earth. Examples of debris include non-operational satellites, rocket bodies, and fragments generated from explosions, collisions, or faulty payload assembly.

Loading next visibility...
Identifier
48713, 2002-032AW
Orbit
SSO
Country
Flag of USUS
Related business
Manufacturer
Unknown
Mission
Spacecraft
Bus & Motor
Unknown
Mass
Unknown
Launch date (UTC)
2002-06-24 (24 years ago)
Launch vehicle
Unknown
Launch site
Air Force Western Test Range (AFWTR)
Object type
Payload
Rocket body
Debris
Shape & HBR
Unknown shape, 0.1 m
Radar Cross Section
Small (<0.1 m²)

Expand to show TLE details & history
Last TLE update: 3 days ago

TLE from 3 days ago
0 NOAA 17 DEB
1 48713U 02032AW  26170.91359462  .00050737  00000-0  29510-2 0  9996
2 48713  98.9899 310.9934 0030174 282.2347  77.5500 15.11487784280470
Epoch: 2026-06-19T21:55Z
TLE epoch observation values (Epoch: 2026-06-19T21:55:34.575Z)
Latitude
-0°
Longitude
73.96359°
Altitude
530.255 km
Speed
7.6 km/s
True Right ascension
20h 43m 58s
True Declination
0° 00' 00"
Sunlit
Object was in full shadow at epoch
Visualization orbit readout
Latitude
Unknown
Longitude
Unknown
Altitude
Unknown
Speed
Unknown
Apparent Right ascension
Unknown
Apparent Declination
Unknown
Sunlit
N/A
Visualization observer readout
Local Sidereal Time
21:37:23
Azimuth
Unknown
Elevation
Unknown
Doppler factor
Unknown
Orbital elements
Apogee altitude
549.554 km
Perigee altitude
507.873 km
Semi-major axis
6,906.851 km
Eccentricity
0.00302
Inclination
98.9899°
RAAN
310.9934°
Arg. of periapsis
282.2347°
True anomaly
77.88791°
Mean anomaly
77.55°
Eccentric anomaly
77.71893°
Mean motion
3.78114 °/min
Orbital period
95.21 mins
BSTAR
0.002951
Loading maneuver chart data...
Computing Atmospheric mass density...

Documentation

Showing up to 5 results
|